SHIYAN 12 02 (SY-12 02)

导读 | 星芒AI

SHIYAN 12 02(SY-12 02)卫星是中国研制的一颗技术试验卫星,主要用于开展空间科学与技术验证任务。该卫星隶属于中国国家航天局,旨在测试新型通信、导航或遥感技术,提升中国在航天领域的自主创新能力。SY-12 02卫星的发射有助于推动中国在卫星通信、数据传输和空间探测等方面的技术进步,为未来更复杂的航天任务奠定基础。

基本信息
目录编号:
50322
目录名称:
SHIYAN 12 02 (SY-12 02)
国际标识:
2021-129B
轨道中心:
EARTH
卫星名称:
SHIYAN 12 02 (SY-12 02)
卫星全名:
--
卫星状态:
在轨 (已飞行1409 天)
发射日期:
2021-12-23 UTC
国别 :
中国 (CN)
星等 :
--
轨道信息
数据来源 国际轨道数据 AOE轨道数据
星历时间 2025-11-01T00:58:49+0800
1天前
查看轨道信息
2025-11-02T01:00:00+0800
2小时前
查看轨道信息
半长轴 42213.606km 42213.746km
偏心率 0.0002969 0.0003234
轨道倾角 3.080° 3.083°
近地点辐角 172.802° 174.708°
升交点赤经 83.087° 83.069°
平近点角 149.687° 148.452°
近地点 35822.937km 35821.959km
远地点 35848.005km 35849.263km
周期 1438.594分钟 1438.602分钟
每日圈数 1.000977 1.000972
详细信息
使用方式:
暂无
2D轨道图
3D轨道图
轨道高度分析图
轨道倾角分析图
轨道综合分析图
查看轨道综合分析图